Regional Weather Roundup
Issued by NWS

Home | Current Version | Previous Version | Text Only | Print | Product List | Glossary On
Versions: 1 2 3 4 5 6 7 8 9 10 11 12 13 14 15 16 17 18 19 20 21 22 23 24 25 26 27 28 29 30 31 32 33 34 35 36 37 38 39 40 41 42 43 44 45 46 47 48 49 50
000
ASUS43 KTOP 010708
RWRKS

WEATHER ROUNDUP FOR KANSAS
NATIONAL WEATHER SERVICE GOODLAND KS
200 AM CDT WED JUN 01 2016

NOTE:  "FAIR" INDICATES FEW OR NO CLOUDS BELOW 12,000 FEET WITH NO
SIGNIFICANT WEATHER AND/OR OBSTRUCTIONS TO VISIBILITY.

KSZ001>006-013>018-027>032-041>047-010800-
NORTHWEST KANSAS

CITY           SKY/WX    TMP DP  RH WIND       PRES   REMARKS
GOODLAND       CLOUDY    56  48  74 S6        30.13R
HAYS           CLEAR     55  48  76 W5        30.04R
HILL CITY      PTCLDY    56  54  93 NW6       30.06F
RUSSELL        CLEAR     60  57  89 N5        30.01S
$$

KSZ061>065-074>080-084>089-010800-
SOUTHWEST KANSAS

CITY           SKY/WX    TMP DP  RH WIND       PRES   REMARKS
DODGE CITY     CLOUDY    58  57  97 N7        30.05R
ELKHART          N/A     59  55  87 NE5         N/A
GARDEN CITY    CLOUDY    60  56  86 N6        30.07R
GREAT BEND     PTCLDY    61  54  77 CALM      30.03R
LIBERAL        CLOUDY    59  52  77 N3        30.09R
PRATT          CLOUDY    60  58  92 N6        30.02S
$$

KSZ066>073-081>083-090>101-010800-
SOUTHEAST KANSAS

CITY           SKY/WX    TMP DP  RH WIND       PRES   REMARKS
CHANUTE        CLOUDY    65  62  90 CALM      29.95F
COFFEYVILLE    LGT RAIN  68  66  93 N8        29.95F
HUTCHINSON     CLEAR     63  59  87 CALM      30.00S
MEDICINE LODGE   N/A     62  59  90 N5        29.99S
NEWTON         CLOUDY    63  55  77 NE5       30.01S
PARSONS        CLOUDY    66  65  96 CALM      29.97F
WICHITA INTL   CLOUDY    68  61  78 N7        29.97F
WICHITA JABRA  CLOUDY    62  61  96 N5        29.98S
WICHITA MCCONL CLOUDY    66  61  83 NE7       29.97F
WINFIELD       CLOUDY    68  65  90 SE12G21   29.99R
$$

KSZ007>012-019>026-033>040-048>060-102>105-010800-
NORTHEAST KANSAS

CITY           SKY/WX    TMP DP  RH WIND       PRES   REMARKS
CONCORDIA      CLEAR     60  55  83 NW3       29.99F
EMPORIA        CLEAR     64  61  90 N5        29.97F
LAWRENCE       CLOUDY    62  60  93 CALM      29.96F FOG
MANHATTAN      PTCLDY    62  57  83 CALM      29.98F
MARYSVILLE     CLEAR     59  55  88 CALM      29.98F
OLATHE IND     CLOUDY    65  62  90 CALM      29.96F
OLATHE EXE     PTCLDY    63  62  97 CALM      29.96F
SALINA         CLEAR     63  60  90 NW5       30.00S
TOPEKA BILLARD CLOUDY    65  62  90 CALM      29.96F
TOPEKA FORBES  CLOUDY    64  61  90 NW3       29.96F
$$




USA.gov is the U.S. government's official web portal to all federal, state and local government web resources and services.